| time (UTC) | temp F | wind direction | speed MPH | gust MPH | rain 1hr in | rain 24hr in | rain mn in | humidity % | barometer mb |
| 20260506211927 | 62 | 358 | 5.0 | 6.0 | 0.00 | 0.01 | 0.01 | 42 | 1016.8 |
| 20260506211424 | 62 | 39 | 4.0 | 4.0 | 0.00 | 0.01 | 0.01 | 42 | 1016.9 |
| 20260506210921 | 61 | 36 | 4.0 | 6.0 | 0.00 | 0.01 | 0.01 | 44 | 1016.8 |
| 20260506210417 | 62 | 19 | 4.0 | 4.0 | 0.00 | 0.01 | 0.01 | 42 | 1016.9 |
| 20260506205915 | 62 | 80 | 3.0 | 4.0 | 0.00 | 0.01 | 0.01 | 43 | 1017.0 |
| 20260506205410 | 62 | 303 | 6.0 | 7.0 | 0.00 | 0.01 | 0.01 | 46 | 1016.9 |
| 20260506204907 | 62 | 43 | 2.0 | 3.0 | 0.00 | 0.01 | 0.01 | 46 | 1017.0 |
| 20260506204405 | 62 | 4 | 7.0 | 9.0 | 0.00 | 0.01 | 0.01 | 44 | 1017.0 |
| 20260506203902 | 62 | 25 | 3.0 | 6.0 | 0.00 | 0.01 | 0.01 | 43 | 1017.2 |
| 20260506203359 | 61 | 6 | 1.0 | 1.0 | 0.00 | 0.01 | 0.01 | 44 | 1017.1 |
| 20260506202856 | 61 | 358 | 13.0 | 17.0 | 0.00 | 0.01 | 0.01 | 41 | 1017.4 |
| 20260506202353 | 62 | 320 | 3.0 | 6.0 | 0.00 | 0.01 | 0.01 | 40 | 1017.4 |
| 20260506201849 | 62 | 48 | 1.0 | 2.0 | 0.00 | 0.01 | 0.01 | 43 | 1017.4 |
| 20260506201347 | 61 | 334 | 6.0 | 9.0 | 0.00 | 0.01 | 0.01 | 43 | 1017.4 |
| 20260506200843 | 61 | 34 | 4.0 | 6.0 | 0.00 | 0.01 | 0.01 | 44 | 1017.4 |
| 20260506200339 | 61 | 331 | 12.0 | 14.0 | 0.00 | 0.01 | 0.01 | 42 | 1017.5 |
| 20260506195836 | 61 | 317 | 7.0 | 9.0 | 0.00 | 0.01 | 0.01 | 44 | 1017.3 |
| 20260506195333 | 61 | 348 | 5.0 | 7.0 | 0.00 | 0.01 | 0.01 | 44 | 1017.3 |
| 20260506194830 | 61 | 38 | 6.0 | 10.0 | 0.00 | 0.01 | 0.01 | 42 | 1017.5 |
| 20260506194326 | 61 | 39 | 1.0 | 2.0 | 0.00 | 0.01 | 0.01 | 45 | 1017.6 |
| 20260506193824 | 61 | 327 | 4.0 | 4.0 | 0.00 | 0.01 | 0.01 | 44 | 1017.6 |
| 20260506193321 | 61 | 310 | 5.0 | 10.0 | 0.00 | 0.01 | 0.01 | 44 | 1017.9 |
| 20260506192817 | 61 | 18 | 9.0 | 10.0 | 0.00 | 0.01 | 0.01 | 45 | 1018.0 |
| 20260506192314 | 61 | 317 | 6.0 | 8.0 | 0.00 | 0.01 | 0.01 | 43 | 1018.1 |
| 20260506191811 | 60 | 25 | 3.0 | 6.0 | 0.00 | 0.01 | 0.01 | 45 | 1018.1 |
| 20260506191307 | 60 | 352 | 2.0 | 2.0 | 0.00 | 0.01 | 0.01 | 43 | 1018.1 |
| 20260506190804 | 61 | 22 | 8.0 | 9.0 | 0.00 | 0.01 | 0.01 | 45 | 1018.3 |
| 20260506190301 | 60 | 4 | 2.0 | 4.0 | 0.00 | 0.01 | 0.01 | 44 | 1018.0 |
| 20260506185758 | 60 | 58 | 8.0 | 9.0 | 0.00 | 0.01 | 0.01 | 45 | 1018.2 |
| 20260506185254 | 61 | 6 | 4.0 | 6.0 | 0.00 | 0.01 | 0.01 | 44 | 1018.3 |
| 20260506184752 | 60 | 24 | 6.0 | 7.0 | 0.00 | 0.01 | 0.01 | 44 | 1018.3 |
| 20260506184249 | 60 | 2 | 10.0 | 16.0 | 0.00 | 0.01 | 0.01 | 45 | 1018.3 |
| 20260506183746 | 60 | 21 | 4.0 | 7.0 | 0.00 | 0.01 | 0.01 | 43 | 1018.4 |
| 20260506183246 | 59 | 12 | 5.0 | 8.0 | 0.00 | 0.01 | 0.01 | 45 | 1018.4 |
| 20260506182744 | 60 | 36 | 2.0 | 6.0 | 0.00 | 0.01 | 0.01 | 44 | 1018.5 |
| 20260506182241 | 60 | 8 | 6.0 | 7.0 | 0.00 | 0.01 | 0.01 | 45 | 1018.5 |
| 20260506181739 | 60 | 20 | 4.0 | 7.0 | 0.00 | 0.01 | 0.01 | 45 | 1018.7 |
| 20260506181236 | 60 | 339 | 1.0 | 3.0 | 0.00 | 0.01 | 0.01 | 47 | 1019.0 |
| 20260506180733 | 60 | 20 | 8.0 | 10.0 | 0.00 | 0.01 | 0.01 | 45 | 1018.9 |
| 20260506180234 | 60 | 12 | 1.0 | 1.0 | 0.00 | 0.01 | 0.01 | 42 | 1018.9 |
| 20260506175730 | 60 | 14 | 1.0 | 1.0 | 0.00 | 0.01 | 0.01 | 46 | 1019.2 |
| 20260506175227 | 60 | 94 | 2.0 | 6.0 | 0.00 | 0.01 | 0.01 | 45 | 1019.3 |
| 20260506174725 | 60 | 10 | 6.0 | 9.0 | 0.00 | 0.01 | 0.01 | 45 | 1019.1 |
| 20260506174221 | 59 | 22 | 2.0 | 4.0 | 0.00 | 0.01 | 0.01 | 47 | 1019.2 |
| 20260506173719 | 58 | 14 | 6.0 | 8.0 | 0.00 | 0.01 | 0.01 | 46 | 1019.2 |
| 20260506173216 | 59 | 18 | 6.0 | 9.0 | 0.00 | 0.01 | 0.01 | 44 | 1019.1 |
| 20260506172713 | 59 | 3 | 4.0 | 6.0 | 0.00 | 0.01 | 0.01 | 47 | 1019.2 |
| 20260506172209 | 59 | 20 | 2.0 | 6.0 | 0.00 | 0.01 | 0.01 | 46 | 1019.2 |
| 20260506171707 | 57 | 19 | 0.0 | 0.0 | 0.00 | 0.01 | 0.01 | 47 | 1019.1 |
| 20260506171205 | 57 | 32 | 2.0 | 3.0 | 0.00 | 0.01 | 0.01 | 47 | 1019.1 |
| 20260506170702 | 57 | 23 | 3.0 | 4.0 | 0.00 | 0.01 | 0.01 | 47 | 1019.3 |
| 20260506170158 | 57 | 26 | 4.0 | 6.0 | 0.00 | 0.01 | 0.01 | 46 | 1019.5 |
| 20260506165657 | 57 | 27 | 4.0 | 6.0 | 0.00 | 0.01 | 0.01 | 49 | 1019.6 |
| 20260506165153 | 57 | 115 | 1.0 | 2.0 | 0.00 | 0.01 | 0.01 | 50 | 1019.5 |
| 20260506164650 | 56 | 12 | 3.0 | 3.0 | 0.00 | 0.01 | 0.01 | 50 | 1019.5 |
| 20260506164148 | 56 | 32 | 2.0 | 4.0 | 0.00 | 0.01 | 0.01 | 48 | 1019.5 |
| 20260506163644 | 57 | 25 | 5.0 | 7.0 | 0.00 | 0.01 | 0.01 | 49 | 1019.1 |
| 20260506163139 | 56 | 350 | 3.0 | 4.0 | 0.00 | 0.01 | 0.01 | 50 | 1018.9 |
| 20260506162635 | 57 | 2 | 5.0 | 7.0 | 0.00 | 0.01 | 0.01 | 51 | 1019.0 |
| 20260506162133 | 56 | 36 | 2.0 | 4.0 | 0.00 | 0.01 | 0.01 | 53 | 1018.7 |
| 20260506161630 | 57 | 75 | 6.0 | 10.0 | 0.00 | 0.01 | 0.01 | 52 | 1018.6 |
| 20260506161127 | 57 | 37 | 1.0 | 1.0 | 0.00 | 0.01 | 0.01 | 53 | 1018.3 |
| 20260506160624 | 57 | 24 | 3.0 | 3.0 | 0.00 | 0.01 | 0.01 | 54 | 1018.2 |
| 20260506160121 | 57 | 10 | 2.0 | 4.0 | 0.00 | 0.01 | 0.01 | 53 | 1018.1 |
| 20260506155620 | 56 | 43 | 2.0 | 3.0 | 0.00 | 0.01 | 0.01 | 54 | 1018.3 |
| 20260506155117 | 54 | 53 | 2.0 | 3.0 | 0.00 | 0.01 | 0.01 | 58 | 1018.0 |
| 20260506153218 | 54 | 33 | 4.0 | 6.0 | 0.00 | 0.01 | 0.01 | 56 | 1018.3 |
| 20260506152715 | 54 | 17 | 9.0 | 11.0 | 0.00 | 0.01 | 0.01 | 57 | 1018.2 |
| 20260506152212 | 54 | 6 | 3.0 | 6.0 | 0.00 | 0.01 | 0.01 | 59 | 1018.2 |
| 20260506151712 | 54 | 7 | 2.0 | 2.0 | 0.00 | 0.01 | 0.01 | 59 | 1018.2 |
| 20260506151208 | 54 | 67 | 5.0 | 7.0 | 0.00 | 0.01 | 0.01 | 58 | 1018.3 |
| 20260506150704 | 54 | 14 | 3.0 | 4.0 | 0.00 | 0.01 | 0.01 | 60 | 1018.2 |
| 20260506150201 | 54 | 356 | 3.0 | 4.0 | 0.00 | 0.01 | 0.01 | 62 | 1018.5 |
| 20260506145658 | 53 | 21 | 4.0 | 6.0 | 0.00 | 0.01 | 0.01 | 61 | 1018.1 |
| 20260506145155 | 53 | 11 | 2.0 | 3.0 | 0.00 | 0.01 | 0.01 | 62 | 1017.9 |
| 20260506144653 | 53 | 23 | 2.0 | 2.0 | 0.00 | 0.01 | 0.01 | 65 | 1018.0 |
| 20260506144149 | 53 | 352 | 4.0 | 4.0 | 0.00 | 0.01 | 0.01 | 66 | 1018.0 |
| 20260506143646 | 52 | 18 | 2.0 | 3.0 | 0.00 | 0.01 | 0.01 | 69 | 1017.5 |
| 20260506143144 | 51 | 28 | 2.0 | 3.0 | 0.00 | 0.01 | 0.01 | 69 | 1017.9 |
| 20260506142643 | 51 | 2 | 3.0 | 3.0 | 0.00 | 0.01 | 0.01 | 70 | 1017.8 |
| 20260506142140 | 51 | 45 | 6.0 | 9.0 | 0.00 | 0.01 | 0.01 | 71 | 1017.5 |
| 20260506141638 | 50 | 18 | 2.0 | 3.0 | 0.00 | 0.01 | 0.01 | 72 | 1017.8 |
| 20260506141136 | 50 | 43 | 1.0 | 2.0 | 0.00 | 0.01 | 0.01 | 74 | 1018.1 |
| 20260506140633 | 50 | 15 | 3.0 | 4.0 | 0.00 | 0.01 | 0.01 | 75 | 1018.2 |
| 20260506140130 | 49 | 354 | 4.0 | 4.0 | 0.00 | 0.01 | 0.01 | 76 | 1018.3 |
| 20260506135627 | 49 | 61 | 2.0 | 3.0 | 0.00 | 0.01 | 0.01 | 76 | 1018.3 |
| 20260506135123 | 48 | 36 | 0.0 | 0.0 | 0.00 | 0.01 | 0.01 | 77 | 1018.2 |
| 20260506134620 | 48 | 18 | 0.0 | 1.0 | 0.00 | 0.01 | 0.01 | 76 | 1018.4 |
| 20260506134115 | 48 | 50 | 2.0 | 3.0 | 0.00 | 0.01 | 0.01 | 77 | 1018.2 |
| 20260506133613 | 48 | 35 | 2.0 | 3.0 | 0.00 | 0.01 | 0.01 | 78 | 1018.2 |
| 20260506133110 | 48 | 7 | 0.0 | 0.0 | 0.00 | 0.01 | 0.01 | 79 | 1018.1 |
| 20260506132608 | 47 | 39 | 2.0 | 2.0 | 0.00 | 0.01 | 0.01 | 79 | 1018.1 |
| 20260506132104 | 47 | 177 | 1.0 | 2.0 | 0.00 | 0.01 | 0.01 | 80 | 1018.0 |
| 20260506131602 | 47 | 55 | 0.0 | 1.0 | 0.00 | 0.01 | 0.01 | 81 | 1017.9 |
| 20260506131058 | 47 | 42 | 1.0 | 1.0 | 0.00 | 0.01 | 0.01 | 81 | 1017.9 |
| 20260506130555 | 47 | 41 | 2.0 | 3.0 | 0.00 | 0.01 | 0.01 | 81 | 1018.0 |
| 20260506130053 | 47 | 39 | 1.0 | 2.0 | 0.00 | 0.01 | 0.01 | 81 | 1017.9 |
| 20260506125551 | 47 | 82 | 1.0 | 2.0 | 0.00 | 0.01 | 0.01 | 82 | 1017.8 |
| 20260506125048 | 47 | 359 | 5.0 | 7.0 | 0.00 | 0.01 | 0.01 | 83 | 1018.1 |
| 20260506124545 | 46 | 18 | 2.0 | 4.0 | 0.00 | 0.01 | 0.01 | 83 | 1017.5 |
| 20260506124043 | 46 | 30 | 1.0 | 1.0 | 0.00 | 0.01 | 0.01 | 84 | 1017.8 |
| 20260506123541 | 46 | 17 | 1.0 | 2.0 | 0.00 | 0.01 | 0.01 | 85 | 1017.8 |
| 20260506123039 | 46 | 19 | 1.0 | 1.0 | 0.00 | 0.01 | 0.01 | 85 | 1017.8 |
| 20260506122535 | 46 | 31 | 1.0 | 1.0 | 0.00 | 0.01 | 0.01 | 86 | 1017.9 |
| 20260506122034 | 46 | 15 | 1.0 | 1.0 | 0.00 | 0.01 | 0.01 | 87 | 1017.9 |
| 20260506121531 | 46 | 24 | 2.0 | 2.0 | 0.00 | 0.01 | 0.01 | 88 | 1018.0 |
| 20260506121027 | 46 | 8 | 4.0 | 4.0 | 0.00 | 0.01 | 0.01 | 88 | 1017.9 |
| 20260506120525 | 46 | 31 | 4.0 | 7.0 | 0.00 | 0.01 | 0.01 | 89 | 1018.1 |
| 20260506120022 | 46 | 21 | 1.0 | 2.0 | 0.00 | 0.01 | 0.01 | 91 | 1018.0 |
| 20260506115520 | 46 | 21 | 6.0 | 7.0 | 0.00 | 0.01 | 0.01 | 92 | 1018.1 |
| 20260506115018 | 46 | 348 | 3.0 | 4.0 | 0.00 | 0.01 | 0.01 | 92 | 1017.9 |
| 20260506114515 | 46 | 14 | 4.0 | 7.0 | 0.00 | 0.01 | 0.01 | 92 | 1017.8 |
| 20260506114014 | 46 | 2 | 3.0 | 3.0 | 0.00 | 0.01 | 0.01 | 93 | 1017.9 |
| 20260506113511 | 46 | 8 | 2.0 | 2.0 | 0.00 | 0.01 | 0.01 | 93 | 1017.5 |
| 20260506113008 | 46 | 0 | 3.0 | 4.0 | 0.00 | 0.01 | 0.01 | 93 | 1017.4 |
| 20260506112505 | 46 | 5 | 4.0 | 6.0 | 0.00 | 0.01 | 0.01 | 93 | 1017.5 |
| 20260506112002 | 46 | 33 | 3.0 | 3.0 | 0.00 | 0.01 | 0.01 | 93 | 1017.2 |
| 20260506111500 | 46 | 4 | 2.0 | 3.0 | 0.00 | 0.01 | 0.01 | 93 | 1017.2 |
| 20260506110956 | 46 | 16 | 5.0 | 7.0 | 0.00 | 0.01 | 0.01 | 94 | 1017.4 |
| 20260506110455 | 45 | 33 | 4.0 | 4.0 | 0.00 | 0.01 | 0.01 | 94 | 1017.2 |
| 20260506105951 | 45 | 12 | 2.0 | 2.0 | 0.00 | 0.01 | 0.01 | 94 | 1017.2 |
| 20260506105447 | 45 | 15 | 2.0 | 2.0 | 0.00 | 0.01 | 0.01 | 94 | 1017.2 |
| 20260506104945 | 45 | 16 | 1.0 | 2.0 | 0.00 | 0.01 | 0.01 | 94 | 1017.0 |
| 20260506104443 | 45 | 11 | 4.0 | 4.0 | 0.00 | 0.01 | 0.01 | 94 | 1016.7 |
| 20260506103941 | 45 | 0 | 2.0 | 2.0 | 0.00 | 0.01 | 0.01 | 94 | 1016.8 |
| 20260506103438 | 45 | 11 | 2.0 | 2.0 | 0.00 | 0.01 | 0.01 | 93 | 1016.6 |
| 20260506102935 | 45 | 18 | 2.0 | 3.0 | 0.00 | 0.01 | 0.01 | 93 | 1016.2 |
| 20260506102433 | 45 | 1 | 4.0 | 4.0 | 0.00 | 0.01 | 0.01 | 93 | 1016.3 |
| 20260506101930 | 45 | 27 | 2.0 | 3.0 | 0.00 | 0.01 | 0.01 | 93 | 1016.2 |
| 20260506101426 | 45 | 7 | 3.0 | 3.0 | 0.00 | 0.01 | 0.01 | 93 | 1016.3 |
| 20260506100923 | 45 | 315 | 2.0 | 3.0 | 0.00 | 0.01 | 0.01 | 93 | 1016.3 |
| 20260506100421 | 45 | 12 | 5.0 | 6.0 | 0.00 | 0.01 | 0.01 | 93 | 1016.2 |
| 20260506095919 | 45 | 2 | 3.0 | 3.0 | 0.00 | 0.01 | 0.01 | 93 | 1016.0 |
| 20260506095417 | 45 | 308 | 4.0 | 4.0 | 0.00 | 0.01 | 0.01 | 93 | 1015.9 |
| 20260506094913 | 45 | 17 | 2.0 | 2.0 | 0.00 | 0.01 | 0.01 | 93 | 1015.8 |
| 20260506094412 | 45 | 14 | 1.0 | 2.0 | 0.00 | 0.01 | 0.01 | 93 | 1015.9 |
| 20260506093909 | 45 | 5 | 2.0 | 3.0 | 0.00 | 0.01 | 0.01 | 93 | 1015.7 |
| 20260506093407 | 45 | 16 | 1.0 | 2.0 | 0.00 | 0.01 | 0.01 | 93 | 1015.7 |
| 20260506092905 | 45 | 6 | 3.0 | 4.0 | 0.00 | 0.01 | 0.01 | 93 | 1015.7 |
| 20260506092403 | 45 | 13 | 2.0 | 3.0 | 0.00 | 0.01 | 0.01 | 92 | 1015.8 |
| 20260506091859 | 45 | 7 | 2.0 | 2.0 | 0.00 | 0.01 | 0.01 | 92 | 1015.6 |
| 20260506091357 | 45 | 18 | 3.0 | 3.0 | 0.00 | 0.01 | 0.01 | 92 | 1015.9 |
| 20260506090854 | 45 | 10 | 2.0 | 2.0 | 0.00 | 0.01 | 0.01 | 91 | 1015.6 |
| 20260506090352 | 45 | 18 | 1.0 | 2.0 | 0.00 | 0.01 | 0.01 | 91 | 1015.4 |
| 20260506085848 | 45 | 11 | 1.0 | 2.0 | 0.00 | 0.01 | 0.01 | 91 | 1015.5 |
| 20260506085344 | 45 | 34 | 2.0 | 2.0 | 0.00 | 0.01 | 0.01 | 90 | 1014.9 |
| 20260506084841 | 46 | 6 | 1.0 | 2.0 | 0.05 | 0.01 | 0.01 | 89 | 1015.0 |
| 20260506084338 | 46 | 358 | 1.0 | 2.0 | 0.05 | 0.01 | 0.01 | 89 | 1014.6 |
| 20260506083834 | 46 | 8 | 3.0 | 3.0 | 0.00 | 0.00 | 0.00 | 88 | 1014.6 |
| 20260506083332 | 46 | 20 | 2.0 | 2.0 | 0.00 | 0.00 | 0.00 | 87 | 1014.1 |
| 20260506082829 | 46 | 20 | 3.0 | 3.0 | 0.00 | 0.00 | 0.00 | 87 | 1014.1 |
| 20260506082326 | 46 | 28 | 2.0 | 3.0 | 0.00 | 0.00 | 0.00 | 87 | 1014.5 |
| 20260506081822 | 46 | 4 | 2.0 | 2.0 | 0.00 | 0.00 | 0.00 | 87 | 1014.7 |
| 20260506081320 | 46 | 22 | 0.0 | 1.0 | 0.00 | 0.00 | 0.00 | 88 | 1014.0 |
| 20260506080817 | 46 | 53 | 1.0 | 2.0 | 0.00 | 0.00 | 0.00 | 87 | 1013.9 |
| 20260506080313 | 46 | 16 | 3.0 | 6.0 | 0.00 | 0.00 | 0.00 | 87 | 1013.7 |
| 20260506073258 | 46 | 0 | 3.0 | 3.0 | 0.00 | 0.00 | 0.00 | 86 | 1013.6 |
| 20260506072754 | 46 | 12 | 1.0 | 2.0 | 0.00 | 0.00 | 0.00 | 85 | 1013.6 |
| 20260506072252 | 46 | 359 | 5.0 | 7.0 | 0.00 | 0.00 | 0.00 | 85 | 1013.4 |
| 20260506071749 | 46 | 7 | 2.0 | 2.0 | 0.00 | 0.00 | 0.00 | 84 | 1013.7 |
| 20260506071247 | 46 | 8 | 2.0 | 2.0 | 0.00 | 0.00 | 0.00 | 84 | 1013.9 |
| 20260506070744 | 47 | 34 | 1.0 | 2.0 | 0.00 | 0.00 | 0.00 | 83 | 1013.3 |
| 20260506070241 | 47 | 353 | 2.0 | 2.0 | 0.00 | 0.00 | 0.00 | 83 | 1013.5 |
| 20260506062218 | 47 | 17 | 1.0 | 2.0 | 0.00 | 0.00 | 0.00 | 83 | 1015.0 |
| 20260506061714 | 47 | 6 | 4.0 | 4.0 | 0.00 | 0.00 | 0.00 | 82 | 1014.8 |
| 20260506061212 | 47 | 26 | 0.0 | 0.0 | 0.00 | 0.00 | 0.00 | 83 | 1014.7 |
| 20260506060711 | 47 | 18 | 1.0 | 2.0 | 0.00 | 0.00 | 0.00 | 83 | 1014.7 |
| 20260506060207 | 47 | 49 | 1.0 | 2.0 | 0.00 | 0.00 | 0.00 | 82 | 1014.8 |
| 20260506051139 | 48 | 35 | 6.0 | 7.0 | 0.00 | 0.00 | 0.00 | 81 | 1014.7 |
| 20260506050637 | 48 | 8 | 3.0 | 4.0 | 0.00 | 0.00 | 0.00 | 81 | 1014.6 |
| 20260506050134 | 48 | 13 | 1.0 | 2.0 | 0.00 | 0.00 | 0.00 | 80 | 1014.4 |
| 20260506045127 | 48 | 16 | 4.0 | 6.0 | 0.00 | 0.00 | 0.00 | 80 | 1014.6 |
| 20260506044625 | 48 | 23 | 1.0 | 3.0 | 0.00 | 0.00 | 0.00 | 79 | 1014.6 |
| 20260506044122 | 48 | 32 | 4.0 | 4.0 | 0.00 | 0.00 | 0.00 | 80 | 1014.7 |
| 20260506043619 | 48 | 92 | 2.0 | 3.0 | 0.00 | 0.00 | 0.00 | 80 | 1014.4 |
| 20260506043117 | 48 | 353 | 4.0 | 6.0 | 0.00 | 0.00 | 0.00 | 79 | 1014.2 |
| 20260506042616 | 48 | 19 | 3.0 | 4.0 | 0.00 | 0.00 | 0.00 | 80 | 1014.4 |
| 20260506042113 | 48 | 13 | 2.0 | 3.0 | 0.00 | 0.00 | 0.00 | 81 | 1013.9 |
| 20260506041612 | 48 | 27 | 2.0 | 2.0 | 0.00 | 0.00 | 0.00 | 80 | 1013.9 |
| 20260506041108 | 48 | 56 | 2.0 | 3.0 | 0.00 | 0.00 | 0.00 | 80 | 1013.5 |
| 20260506040606 | 48 | 5 | 2.0 | 2.0 | 0.00 | 0.00 | 0.00 | 81 | 1013.5 |
| 20260506035559 | 48 | 30 | 4.0 | 6.0 | 0.00 | 0.39 | 0.39 | 81 | 1013.8 |
| 20260506035056 | 48 | 22 | 5.0 | 8.0 | 0.00 | 0.39 | 0.39 | 82 | 1013.9 |
| 20260506034553 | 47 | 10 | 5.0 | 8.0 | 0.00 | 0.39 | 0.39 | 83 | 1013.7 |
| 20260506034050 | 48 | 358 | 2.0 | 3.0 | 0.00 | 0.39 | 0.39 | 83 | 1013.8 |
| 20260506033547 | 47 | 3 | 2.0 | 2.0 | 0.00 | 0.39 | 0.39 | 84 | 1013.2 |
| 20260506033044 | 47 | 16 | 3.0 | 3.0 | 0.00 | 0.39 | 0.39 | 84 | 1013.3 |
| 20260506032541 | 47 | 30 | 2.0 | 3.0 | 0.00 | 0.39 | 0.39 | 84 | 1013.2 |
| 20260506032038 | 48 | 37 | 3.0 | 4.0 | 0.00 | 0.39 | 0.39 | 84 | 1013.0 |
| 20260506031536 | 47 | 328 | 3.0 | 4.0 | 0.00 | 0.39 | 0.39 | 85 | 1013.0 |
| 20260506031032 | 47 | 5 | 4.0 | 6.0 | 0.00 | 0.39 | 0.39 | 86 | 1012.9 |
| 20260506030531 | 47 | 359 | 4.0 | 6.0 | 0.00 | 0.39 | 0.39 | 87 | 1013.0 |
| 20260506030028 | 47 | 5 | 3.0 | 4.0 | 0.00 | 0.39 | 0.39 | 88 | 1012.9 |
| 20260506025525 | 47 | 31 | 7.0 | 10.0 | 0.00 | 0.39 | 0.39 | 88 | 1012.9 |
| 20260506025021 | 47 | 32 | 3.0 | 4.0 | 0.00 | 0.39 | 0.39 | 88 | 1012.8 |
| 20260506024518 | 47 | 36 | 4.0 | 7.0 | 0.00 | 0.39 | 0.39 | 87 | 1013.0 |
| 20260506024014 | 47 | 350 | 6.0 | 7.0 | 0.00 | 0.39 | 0.39 | 87 | 1013.0 |
| 20260506023510 | 47 | 5 | 6.0 | 7.0 | 0.00 | 0.39 | 0.39 | 87 | 1012.8 |
| 20260506023008 | 47 | 12 | 4.0 | 4.0 | 0.00 | 0.39 | 0.39 | 87 | 1013.0 |
| 20260506022505 | 47 | 16 | 7.0 | 13.0 | 0.00 | 0.39 | 0.39 | 88 | 1012.7 |
| 20260506022002 | 47 | 347 | 2.0 | 3.0 | 0.00 | 0.39 | 0.39 | 88 | 1012.5 |
| 20260506021500 | 47 | 26 | 4.0 | 7.0 | 0.00 | 0.39 | 0.39 | 88 | 1012.4 |
| 20260506020957 | 47 | 36 | 4.0 | 4.0 | 0.00 | 0.39 | 0.39 | 88 | 1012.4 |
| 20260506020454 | 47 | 22 | 6.0 | 7.0 | 0.00 | 0.39 | 0.39 | 88 | 1012.2 |
| 20260506015951 | 47 | 6 | 5.0 | 6.0 | 0.00 | 0.39 | 0.39 | 88 | 1012.1 |
| 20260506015449 | 47 | 20 | 2.0 | 3.0 | 0.00 | 0.39 | 0.39 | 88 | 1012.1 |
| 20260506014946 | 47 | 12 | 5.0 | 6.0 | 0.00 | 0.39 | 0.39 | 89 | 1012.1 |
| 20260506014443 | 47 | 18 | 9.0 | 13.0 | 0.00 | 0.39 | 0.39 | 90 | 1012.0 |
| 20260506013939 | 47 | 283 | 2.0 | 2.0 | 0.00 | 0.39 | 0.39 | 90 | 1011.9 |
| 20260506013437 | 47 | 19 | 3.0 | 4.0 | 0.00 | 0.39 | 0.39 | 90 | 1012.0 |
| 20260506012933 | 47 | 28 | 2.0 | 3.0 | 0.00 | 0.39 | 0.39 | 90 | 1012.0 |
| 20260506012430 | 47 | 5 | 2.0 | 3.0 | 0.00 | 0.39 | 0.39 | 90 | 1011.8 |
| 20260506011927 | 47 | 13 | 2.0 | 3.0 | 0.00 | 0.39 | 0.39 | 90 | 1011.8 |
| 20260506011424 | 47 | 25 | 4.0 | 6.0 | 0.00 | 0.39 | 0.39 | 89 | 1011.6 |
| 20260506010921 | 47 | 33 | 3.0 | 3.0 | 0.00 | 0.39 | 0.39 | 89 | 1012.0 |
| 20260506010420 | 47 | 36 | 4.0 | 4.0 | 0.00 | 0.39 | 0.39 | 89 | 1011.7 |
| 20260506005915 | 47 | 24 | 4.0 | 4.0 | 0.00 | 0.39 | 0.39 | 89 | 1011.6 |
| 20260506005414 | 47 | 354 | 3.0 | 4.0 | 0.00 | 0.39 | 0.39 | 88 | 1011.9 |
| 20260506004908 | 47 | 28 | 4.0 | 6.0 | 0.00 | 0.39 | 0.39 | 88 | 1011.6 |
| 20260506004407 | 47 | 10 | 5.0 | 7.0 | 0.00 | 0.39 | 0.39 | 88 | 1011.6 |
| 20260506003902 | 47 | 30 | 6.0 | 9.0 | 0.00 | 0.39 | 0.39 | 88 | 1011.7 |
| 20260506003359 | 47 | 20 | 4.0 | 7.0 | 0.00 | 0.39 | 0.39 | 88 | 1011.5 |
| 20260506002855 | 47 | 63 | 3.0 | 3.0 | 0.00 | 0.39 | 0.39 | 88 | 1011.5 |
| 20260506002351 | 47 | 340 | 4.0 | 6.0 | 0.00 | 0.39 | 0.39 | 87 | 1011.4 |
| 20260506001848 | 47 | 343 | 5.0 | 8.0 | 0.00 | 0.39 | 0.39 | 87 | 1011.4 |
| 20260506001344 | 47 | 1 | 4.0 | 4.0 | 0.00 | 0.39 | 0.39 | 88 | 1011.5 |
| 20260506000841 | 47 | 29 | 3.0 | 3.0 | 0.00 | 0.39 | 0.39 | 88 | 1011.3 |
| 20260506000340 | 47 | 33 | 4.0 | 6.0 | 0.00 | 0.39 | 0.39 | 88 | 1011.4 |
| 20260505235836 | 47 | 35 | 6.0 | 7.0 | 0.00 | 0.39 | 0.39 | 87 | 1011.1 |
| 20260505235333 | 47 | 34 | 7.0 | 10.0 | 0.00 | 0.39 | 0.39 | 88 | 1011.3 |
| 20260505234830 | 47 | 21 | 3.0 | 4.0 | 0.00 | 0.39 | 0.39 | 88 | 1011.5 |
| 20260505234328 | 47 | 47 | 6.0 | 8.0 | 0.00 | 0.39 | 0.39 | 87 | 1011.4 |
| 20260505233825 | 47 | 49 | 7.0 | 9.0 | 0.00 | 0.39 | 0.39 | 86 | 1011.1 |
| 20260505233323 | 48 | 10 | 6.0 | 7.0 | 0.00 | 0.39 | 0.39 | 85 | 1011.0 |
| 20260505232820 | 48 | 12 | 7.0 | 9.0 | 0.00 | 0.39 | 0.39 | 83 | 1010.7 |
| 20260505232317 | 48 | 33 | 4.0 | 8.0 | 0.00 | 0.39 | 0.39 | 81 | 1010.9 |
| 20260505231814 | 49 | 352 | 5.0 | 7.0 | 0.00 | 0.39 | 0.39 | 80 | 1010.9 |
| 20260505231312 | 49 | 16 | 7.0 | 10.0 | 0.00 | 0.39 | 0.39 | 79 | 1010.6 |
| 20260505230810 | 49 | 27 | 2.0 | 3.0 | 0.00 | 0.39 | 0.39 | 78 | 1010.7 |
| 20260505230307 | 49 | 349 | 8.0 | 10.0 | 0.00 | 0.39 | 0.39 | 78 | 1010.6 |
| 20260505225803 | 49 | 6 | 2.0 | 4.0 | 0.00 | 0.39 | 0.39 | 78 | 1010.3 |
| 20260505225300 | 49 | 10 | 4.0 | 7.0 | 0.00 | 0.39 | 0.39 | 78 | 1010.4 |
| 20260505224755 | 49 | 12 | 3.0 | 3.0 | 0.00 | 0.39 | 0.39 | 77 | 1010.5 |
| 20260505224253 | 49 | 23 | 4.0 | 7.0 | 0.00 | 0.39 | 0.39 | 77 | 1010.3 |
| 20260505223751 | 49 | 28 | 7.0 | 9.0 | 0.00 | 0.39 | 0.39 | 76 | 1010.4 |
| 20260505223247 | 49 | 351 | 4.0 | 6.0 | 0.00 | 0.39 | 0.39 | 76 | 1010.4 |
| 20260505222743 | 49 | 27 | 5.0 | 7.0 | 0.00 | 0.39 | 0.39 | 77 | 1010.3 |
| 20260505222239 | 49 | 40 | 9.0 | 10.0 | 0.00 | 0.39 | 0.39 | 77 | 1010.2 |
| 20260505221736 | 49 | 319 | 8.0 | 11.0 | 0.00 | 0.39 | 0.39 | 77 | 1010.3 |
| 20260505221233 | 49 | 347 | 5.0 | 6.0 | 0.00 | 0.39 | 0.39 | 77 | 1010.0 |
| 20260505220730 | 50 | 28 | 8.0 | 11.0 | 0.00 | 0.39 | 0.39 | 76 | 1010.1 |
| 20260505220227 | 50 | 28 | 2.0 | 2.0 | 0.00 | 0.39 | 0.39 | 75 | 1010.1 |
| 20260505215725 | 50 | 18 | 8.0 | 10.0 | 0.00 | 0.39 | 0.39 | 75 | 1010.1 |
| 20260505215223 | 50 | 11 | 10.0 | 11.0 | 0.00 | 0.39 | 0.39 | 75 | 1010.2 |
| 20260505214720 | 50 | 343 | 8.0 | 10.0 | 0.00 | 0.39 | 0.39 | 75 | 1010.2 |
| 20260505214218 | 50 | 16 | 8.0 | 10.0 | 0.00 | 0.39 | 0.39 | 74 | 1009.8 |
| 20260505213715 | 50 | 59 | 3.0 | 6.0 | 0.00 | 0.39 | 0.39 | 74 | 1010.3 |
| 20260505213212 | 50 | 23 | 8.0 | 10.0 | 0.00 | 0.39 | 0.39 | 74 | 1010.0 |
| 20260505212708 | 50 | 357 | 8.0 | 14.0 | 0.00 | 0.39 | 0.39 | 75 | 1010.1 |
| 20260505212206 | 50 | 46 | 6.0 | 8.0 | 0.00 | 0.39 | 0.39 | 76 | 1010.1 |